Flag for Germany Weather past 2 weeks in Bonn, North Rhine-Westphalia, Germany

Now
45 °F

Partly sunny.


Feels Like: 43 °F
Forecast: 34 / 56 °F
Wind: 5 mph from West

Location: Bonn-Hangelar

Current Time: Mar 6, 2015 at 3:55:07 PM

Latest Report: Mar 6, 2015 at 3:00 PM


Visibility: 31 mi

Pressure: 30.59 "Hg

Humidity: 63%

Dew point: 33 °F

Location of BonnLocation

Historic Weather in Bonn — Graph

°F

Bonn temperature yesterday

Maximum temperature yesterday: 45 °F (at 4:00 PM)
Minimum temperature yesterday: 36 °F (at 5:00 AM)
Average temperature yesterday: 39 °F

Past Weeks' High & Low Weather Summary

 TemperatureHumidityPressure
High49 °F (Mar 1, 1:00 PM)100% (Feb 21, 8:00 PM)30.69 "Hg (Feb 21, 8:00 PM)
Low31 °F (Feb 19, 9:00 PM)54% (Feb 28, 5:00 PM)29.38 "Hg (Feb 21, 3:00 AM)
Average39 °F85%29.95 "Hg
* Reported Feb 19 3:00 PM — Mar 6 3:00 PM, Bonn, Weather by CustomWeather, © 2015

Note: Actual official high and low records may vary slightly from our data, if they occured in-between our weather recording intervals... More about our weather records

Advertising

Bonn weather history for previous 24 hours

 ConditionsComfort  
Time TempWeatherWind HumidityBarometerVisibility
3:00 PM
Fri, Mar 6
45 °FPartly sunny.5 mph63%30.59 "Hg31 mi
2:00 PM45 °FPartly sunny.5 mph67%30.59 "Hg19 mi
1:00 PM45 °FOvercast.7 mph72%30.62 "Hg16 mi
12:00 PMN/APassing clouds.9 mphN/AN/A3 mi
11:00 AM42 °FOvercast.5 mph78%30.65 "Hg22 mi
10:00 AM40 °FOvercast.3 mph80%30.66 "Hg22 mi
9:00 AM38 °FOvercast.6 mph83%30.65 "Hg22 mi
8:00 AM37 °FOvercast.6 mph87%30.64 "Hg12 mi
7:00 AM36 °FOvercast.5 mph88%30.66 "Hg7 mi
6:00 AM36 °FOvercast.6 mph89%30.66 "Hg9 mi
5:00 AM36 °FFog.6 mph89%30.66 "Hg4 mi
4:00 AM35 °FFog.5 mph89%30.65 "Hg4 mi
3:00 AM36 °FOvercast.5 mph86%30.66 "Hg6 mi
2:00 AM35 °FClear.5 mph87%30.66 "Hg7 mi
1:00 AM35 °FClear.5 mph88%30.66 "Hg7 mi
12:00 AM34 °FClear.3 mph89%30.67 "Hg9 mi
10:00 PM
Thu, Mar 5
39 °FPassing clouds.2 mph83%30.66 "Hg9 mi
9:00 PM39 °FOvercast.2 mph79%30.66 "Hg12 mi
8:00 PM40 °FOvercast.2 mph79%30.66 "Hg16 mi
7:00 PM41 °FPassing clouds.6 mph76%30.65 "Hg14 mi
6:00 PM42 °FOvercast.3 mph77%30.65 "Hg22 mi
5:00 PM44 °FOvercast.5 mph68%30.64 "Hg22 mi
4:00 PM45 °FOvercast.7 mph66%30.64 "Hg22 mi
3:00 PM45 °FPartly sunny.6 mph73%30.64 "Hg22 mi
Weather by CustomWeather, © 2015

See weather overviewHow to use our weather pages